EW7343 Weather Reports


time (UTC)temp
F
wind
direction
speed
knots
gust
knots
rain 1hr
in
rain 24hr
in
rain mn
in
humidity
%
barometer
mb
20260505014932 64 310 1.7 7.0 0.00 0.00 0.00 46 1007.2
20260505014430 64 222 1.7 5.2 0.00 0.00 0.00 45 1007.0
20260505013930 64 218 1.7 5.2 0.00 0.00 0.00 46 1007.0
20260505013430 64 189 1.7 6.1 0.00 0.00 0.00 45 1007.0
20260505012929 64 169 1.7 7.8 0.00 0.00 0.00 44 1006.9
20260505012429 63 219 1.7 7.8 0.00 0.00 0.00 43 1006.8
20260505011931 62 62 1.7 5.2 0.00 0.00 0.00 44 1006.7
20260505011653 61 221 0.9 5.2 0.00 0.00 0.00 45 1006.7
20260505010930 60 230 0.0 1.7 0.00 0.00 0.00 49 1006.6
20260505010430 60 0 0.0 2.6 0.00 0.00 0.00 48 1006.4
20260505010150 60 0 0.0 2.6 0.00 0.00 0.00 48 1006.3
20260505005431 60 0 0.0 0.0 0.00 0.00 0.00 49 1006.2
20260505004931 60 0 0.0 0.0 0.00 0.00 0.00 47 1006.1
20260505004431 61 0 0.0 0.0 0.00 0.00 0.00 47 1006.1
20260505004151 61 0 0.0 0.0 0.00 0.00 0.00 49 1006.0
20260505003430 62 0 0.0 0.0 0.00 0.00 0.00 47 1005.9
20260505002930 62 0 0.0 0.0 0.00 0.00 0.00 46 1005.8
20260505002429 63 0 0.0 0.0 0.00 0.00 0.00 44 1005.7
20260505002412 63 0 0.0 1.7 0.00 0.00 0.00 43 1005.6
20260505001430 64 0 0.0 1.7 0.00 0.00 0.00 42 1005.5
20260505000930 64 0 0.0 1.7 0.00 0.00 0.00 40 1005.4
20260505000430 65 0 0.0 1.7 0.00 0.00 0.00 40 1005.3
20260504235930 66 0 0.0 1.7 0.00 0.00 0.00 39 1005.3
20260504235431 66 0 0.0 0.9 0.00 0.00 0.00 38 1005.2
20260504235408 67 0 0.0 1.7 0.00 0.00 0.00 35 1005.1
20260504234429 67 0 0.0 2.6 0.00 0.00 0.00 36 1005.1
20260504233930 68 0 0.9 2.6 0.00 0.00 0.00 35 1005.1
20260504233914 68 351 0.9 3.5 0.00 0.00 0.00 35 1005.1
20260504232930 68 0 0.9 3.5 0.00 0.00 0.00 34 1005.0
20260504232430 69 216 0.9 3.5 0.00 0.00 0.00 34 1005.0
20260504231930 69 315 0.9 2.6 0.00 0.00 0.00 33 1004.9
20260504231430 69 0 0.9 3.5 0.00 0.00 0.00 32 1004.8
20260504230943 70 0 0.9 3.5 0.00 0.00 0.00 33 1004.7
20260504230430 70 177 0.9 3.5 0.00 0.00 0.00 32 1004.7
20260504225930 70 202 1.7 7.8 0.00 0.00 0.00 31 1004.6
20260504225430 70 229 2.6 7.8 0.00 0.00 0.00 31 1004.5
20260504225148 71 313 1.7 7.8 0.00 0.00 0.00 31 1004.5
20260504224653 71 0 1.7 7.0 0.00 0.00 0.00 31 1004.5
20260504223930 71 315 2.6 11.3 0.00 0.00 0.00 30 1004.4
20260504223911 71 161 2.6 11.3 0.00 0.00 0.00 30 1004.4
20260504222930 71 211 1.7 7.0 0.00 0.00 0.00 30 1004.3
20260504222431 71 190 1.7 7.0 0.00 0.00 0.00 31 1004.3
20260504221930 71 304 1.7 7.8 0.00 0.00 0.00 31 1004.4
20260504221430 71 309 2.6 7.8 0.00 0.00 0.00 30 1004.3
20260504220930 71 234 3.5 13.0 0.00 0.00 0.00 30 1004.3
20260504220429 71 285 2.6 13.0 0.00 0.00 0.00 30 1004.3
20260504220413 72 295 1.7 7.8 0.00 0.00 0.00 30 1004.4
20260504215430 72 65 2.6 7.8 0.00 0.00 0.00 30 1004.4
20260504214930 72 276 2.6 7.8 0.00 0.00 0.00 29 1004.3
20260504214430 72 344 2.6 7.8 0.00 0.00 0.00 30 1004.3
20260504213929 72 207 3.5 9.6 0.00 0.00 0.00 29 1004.2
20260504213429 72 172 2.6 9.6 0.00 0.00 0.00 30 1004.2
20260504213406 71 160 3.5 15.6 0.00 0.00 0.00 30 1004.1
20260504212430 71 201 3.5 15.6 0.00 0.00 0.00 31 1004.2
20260504211930 71 198 2.6 8.7 0.00 0.00 0.00 30 1004.3
20260504211430 71 161 2.6 7.0 0.00 0.00 0.00 31 1004.4
20260504210931 72 154 3.5 7.8 0.00 0.00 0.00 30 1004.3
20260504210430 72 15 3.5 7.8 0.00 0.00 0.00 30 1004.3
20260504205930 72 279 3.5 12.2 0.00 0.00 0.00 30 1004.2
20260504205430 72 51 5.2 13.0 0.00 0.00 0.00 30 1004.2
20260504204931 72 317 4.3 13.0 0.00 0.00 0.00 29 1004.2
20260504204430 72 0 3.5 10.4 0.00 0.00 0.00 30 1004.2
20260504203930 72 325 3.5 9.6 0.00 0.00 0.00 30 1004.3
20260504203430 71 280 3.5 9.6 0.00 0.00 0.00 29 1004.3
20260504203406 71 341 2.6 7.0 0.00 0.00 0.00 31 1004.3
20260504202430 71 53 2.6 12.2 0.00 0.00 0.00 31 1004.3
20260504201930 71 303 3.5 12.2 0.00 0.00 0.00 29 1004.3
20260504201430 71 147 2.6 8.7 0.00 0.00 0.00 30 1004.3
20260504201152 71 317 2.6 7.8 0.00 0.00 0.00 30 1004.3
20260504200429 71 332 2.6 7.0 0.00 0.00 0.00 31 1004.3
20260504195930 71 276 3.5 8.7 0.00 0.00 0.00 31 1004.4
20260504195431 70 221 3.5 8.7 0.00 0.00 0.00 30 1004.4
20260504194929 70 348 2.6 7.0 0.00 0.00 0.00 31 1004.4
20260504194430 70 192 2.6 7.8 0.00 0.00 0.00 31 1004.4
20260504193929 70 321 2.6 7.8 0.00 0.00 0.00 30 1004.4
20260504193431 70 181 2.6 7.8 0.00 0.00 0.00 30 1004.4
20260504193155 71 199 3.5 9.6 0.00 0.00 0.00 29 1004.4
20260504192653 71 310 3.5 11.3 0.00 0.00 0.00 30 1004.5
20260504191929 71 170 3.5 11.3 0.00 0.00 0.00 29 1004.4
20260504191428 71 176 3.5 11.3 0.00 0.00 0.00 29 1004.4
20260504190929 71 334 3.5 11.3 0.00 0.00 0.00 29 1004.5
20260504190429 71 244 3.5 9.6 0.00 0.00 0.00 30 1004.5
20260504185927 71 167 3.5 9.6 0.00 0.00 0.00 29 1004.6
20260504185426 70 260 3.5 7.8 0.00 0.00 0.00 29 1004.6
20260504184927 70 248 3.5 8.7 0.00 0.00 0.00 30 1004.6
20260504184427 70 267 3.5 10.4 0.00 0.00 0.00 30 1004.7
20260504183927 70 290 3.5 10.4 0.00 0.00 0.00 30 1004.7
20260504183426 69 157 3.5 8.7 0.00 0.00 0.00 30 1004.7
20260504183406 69 243 4.3 9.6 0.00 0.00 0.00 30 1004.7
20260504182427 69 293 3.5 9.6 0.00 0.00 0.00 29 1004.6
20260504181927 70 321 2.6 9.6 0.00 0.00 0.00 29 1004.6
20260504181427 70 268 3.5 11.3 0.00 0.00 0.00 30 1004.8
20260504180926 70 211 4.3 11.3 0.00 0.00 0.00 30 1004.8
20260504180426 71 185 3.5 10.4 0.00 0.00 0.00 31 1004.6
20260504175927 71 164 4.3 10.4 0.00 0.00 0.00 30 1004.7
20260504175427 70 336 3.5 8.7 0.00 0.00 0.00 30 1004.8
20260504174927 70 211 3.5 8.7 0.00 0.00 0.00 30 1004.8
20260504174428 70 191 3.5 10.4 0.00 0.00 0.00 31 1004.8
20260504173928 70 161 4.3 12.2 0.00 0.00 0.00 30 1004.8
20260504173427 70 277 4.3 14.8 0.00 0.00 0.00 30 1004.9
20260504172924 69 166 4.3 14.8 0.00 0.00 0.00 32 1004.9
20260504172425 70 342 4.3 13.9 0.00 0.00 0.00 30 1005.0
20260504171925 69 157 4.3 13.9 0.00 0.00 0.00 32 1005.0
20260504171424 69 265 4.3 12.2 0.00 0.00 0.00 32 1005.0
20260504170924 69 187 4.3 12.2 0.00 0.00 0.00 32 1005.0
20260504170425 69 175 4.3 12.2 0.00 0.00 0.00 31 1005.1
20260504160420 67 285 3.5 8.7 0.00 0.00 0.00 35 1005.6
20260504150915 64 8 3.5 8.7 0.00 0.00 0.00 38 1006.2
20260504150415 64 258 3.5 7.8 0.00 0.00 0.00 37 1006.4
20260504140913 61 295 2.6 10.4 0.00 0.00 0.00 43 1007.2
20260504140849 61 333 2.6 12.2 0.00 0.00 0.00 43 1007.2
20260504140135 60 346 3.5 12.2 0.00 0.00 0.00 44 1007.3
20260504130408 55 225 1.7 6.1 0.00 0.00 0.00 50 1008.0
20260504130130 55 155 1.7 6.1 0.00 0.00 0.00 50 1008.0
20260504110402 43 325 1.7 3.5 0.00 0.00 0.00 74 1009.0
20260504110123 43 325 0.9 1.7 0.00 0.00 0.00 76 1009.0
20260504100402 41 337 0.9 1.7 0.00 0.00 0.00 77 1008.8
20260504090120 43 327 0.9 1.7 0.00 0.00 0.00 72 1008.8
20260504081402 42 143 1.7 4.3 0.00 0.00 0.00 71 1008.8
20260504080902 42 324 1.7 4.3 0.00 0.00 0.00 72 1008.7
20260504080401 42 320 1.7 3.5 0.00 0.00 0.00 71 1008.8
20260504070355 40 319 1.7 3.5 0.00 0.00 0.00 76 1008.6
20260504050348 35 185 1.7 3.5 0.00 0.00 0.00 82 1008.7
20260504045849 35 339 0.9 1.7 0.00 0.00 0.00 84 1008.7
20260504045346 35 306 0.9 1.7 0.00 0.00 0.00 84 1008.7
20260504044842 36 269 0.9 1.7 0.00 0.00 0.00 84 1008.7
20260504044340 36 329 1.7 2.6 0.00 0.00 0.00 84 1008.7
20260504043841 36 263 1.7 2.6 0.00 0.00 0.00 84 1008.7
20260504043608 36 328 1.7 2.6 0.00 0.00 0.00 83 1008.7
20260504042841 36 329 1.7 2.6 0.00 0.00 0.00 83 1008.7
20260504042341 37 325 1.7 2.6 0.00 0.00 0.00 83 1008.7
20260504041841 37 197 1.7 2.6 0.00 0.00 0.00 81 1008.7
20260504041341 37 268 1.7 3.5 0.00 0.00 0.00 82 1008.7
20260504040841 37 253 1.7 3.5 0.00 0.00 0.00 78 1008.6
20260504040341 37 199 1.7 2.6 0.00 0.00 0.00 80 1008.6
20260504035841 38 271 1.7 2.6 0.00 0.00 0.00 80 1008.6
20260504035341 38 229 2.6 3.5 0.00 0.00 0.00 79 1008.5
20260504034838 38 335 2.6 3.5 0.00 0.00 0.00 78 1008.5
20260504034338 38 69 2.6 3.5 0.00 0.00 0.00 79 1008.5
20260504033838 38 358 2.6 3.5 0.00 0.00 0.00 78 1008.5
20260504033337 37 352 1.7 3.5 0.00 0.00 0.00 80 1008.5
20260504033101 37 337 1.7 3.5 0.00 0.00 0.00 82 1008.4
20260504032338 38 324 1.7 3.5 0.00 0.00 0.00 83 1008.3
20260504031838 38 270 1.7 3.5 0.00 0.00 0.00 81 1008.3
20260504031338 38 273 1.7 2.6 0.00 0.00 0.00 79 1008.3
20260504030838 38 310 1.7 3.5 0.00 0.00 0.00 78 1008.2
20260504030338 38 324 1.7 3.5 0.00 0.00 0.00 80 1008.3
20260504025838 38 336 1.7 3.5 0.00 0.00 0.00 81 1008.3
20260504025339 38 279 1.7 3.5 0.00 0.00 0.00 80 1008.3
20260504024839 38 253 1.7 2.6 0.00 0.00 0.00 79 1008.3
20260504024335 39 314 1.7 3.5 0.00 0.00 0.00 78 1008.2
20260504023835 39 315 1.7 3.5 0.00 0.00 0.00 78 1008.3
20260504023336 39 291 2.6 3.5 0.00 0.00 0.00 76 1008.3
20260504022836 39 305 2.6 3.5 0.00 0.00 0.00 78 1008.3
20260504022336 39 324 2.6 3.5 0.00 0.00 0.00 78 1008.2
20260504021836 39 324 1.7 3.5 0.00 0.00 0.00 78 1008.2
20260504021823 39 330 1.7 5.2 0.00 0.00 0.00 77 1008.2
20260504020836 39 334 2.6 5.2 0.00 0.00 0.00 78 1008.2
20260504020337 39 320 1.7 3.5 0.00 0.00 0.00 76 1008.2
20260504020057 40 187 2.6 3.5 0.00 0.00 0.00 75 1008.2
20260504015558 40 329 2.6 3.5 0.00 0.00 0.00 74 1008.1